sat.trackr.live / text

‹ back to catalog

STARLINK-4324

NORAD 53085 · 2022-077AU

PAYLOAD ACTIVE UNKNOWN

§ Identity

Operator
Country
US
Launch date
2022-07-11
Launch site
AFWTR
Launch vehicle
Mass (kg)
RCS (m²)

Purposes: comms

External: N2YO · Heavens-Above · Gunter

§ Orbital elements

Epoch: 2026-09-19T22:26:55.116960Z

Period
93.91 min
Inclination
97.2856°
Eccentricity
0.0001519
Mean motion
15.33436553 rev/d
Perigee alt
464.5 km
Apogee alt
466.6 km
Semi-major
6,843.7 km
B*
1.9618e-5
RAAN
78.5843°
Arg perigee
89.9980°
Mean anomaly
270.1437°
Rev number
23,026

§ Raw data

STARLINK-43241 53085U 22077AU  26262.93536015  .00000558  00000+0  19618-4 0  99952 53085  97.2856  78.5843 0001519  89.9980 270.1437 15.33436553230269

JSON: /api/v1/satellites/53085 · /tle

For live sub-satellite position, see the globe view (requires WebGL).

§ Visibility from observer

Set your observer location to see the next 7 days of passes ≥ 10°. The values pass through the URL so the page stays shareable.

No JS? Fill the form by hand. The geolocation button needs JavaScript.